When you browse on this site, cookies collect data to enhance your experience and personalize the content and advertising you see.
Visit our Privacy Policy to learn more. By continuing to use the site, you agree to this use of cookies and data.
  • In Österreich
  • Länderverzeichnis
  • Für 7 Tage
  • Wassertemperatur
  • Satellitenkarten
  • Wetterkarte
  • News
  • Widgets
  • user-avatar
    Anmelden

    Stündliche Wetter Streamwood

    Heute, 19 Februar, Dienstag

    Zeit Temperatur Niederschläge Wind Luftdruck Luftfeuchtigkeit
    00:00 -8°C° 0 mm 1 m/S 753 mmHg 91%
    01:00 -9°C° 0 mm 1 m/S 753 mmHg 90%
    02:00 -9°C° 0 mm 1 m/S 753 mmHg 90%
    03:00 -9°C° 0 mm 1 m/S 753 mmHg 90%
    04:00 -9°C° 0 mm 1 m/S 753 mmHg 90%
    05:00 -9°C° 0 mm 0 m/S 754 mmHg 89%
    06:00 -9°C° 0 mm 0 m/S 754 mmHg 89%
    07:00 -8°C° 0 mm 0 m/S 754 mmHg 87%
    08:00 -7°C° 0 mm 0 m/S 754 mmHg 86%
    09:00 -6°C° 0 mm 0 m/S 755 mmHg 84%
    10:00 -5°C° 0 mm 0 m/S 755 mmHg 83%
    11:00 -3°C° 0 mm 1 m/S 754 mmHg 82%
    12:00 -2°C° 0 mm 1 m/S 754 mmHg 80%
    13:00 -2°C° 0 mm 1 m/S 753 mmHg 80%
    14:00 -1°C° 0 mm 1 m/S 753 mmHg 80%
    15:00 -1°C° 0 mm 1 m/S 752 mmHg 80%
    16:00 -2°C° 0 mm 1 m/S 752 mmHg 83%
    17:00 -2°C° 0 mm 1 m/S 751 mmHg 86%
    18:00 -2°C° 0 mm 1 m/S 751 mmHg 89%
    19:00 -4°C° 0 mm 2 m/S 750 mmHg 89%
    20:00 -5°C° 0 mm 2 m/S 750 mmHg 89%
    21:00 -5°C° 0 mm 2 m/S 750 mmHg 89%
    22:00 -5°C° 0 mm 2 m/S 749 mmHg 89%
    23:00 -6°C° 0 mm 3 m/S 748 mmHg 88%

    Morgen, 20 Februar, Mittwoch

    Zeit Temperatur Niederschläge Wind Luftdruck Luftfeuchtigkeit
    00:00 -6°C° 0 mm 3 m/S 747 mmHg 88%
    01:00 -5°C° 0.1 mm 3 m/S 746 mmHg 88%
    02:00 -5°C° 0.1 mm 4 m/S 745 mmHg 89%
    03:00 -5°C° 0.1 mm 4 m/S 743 mmHg 89%
    04:00 -6°C° 0.4 mm 5 m/S 742 mmHg 90%
    05:00 -6°C° 0.4 mm 5 m/S 741 mmHg 91%
    06:00 -6°C° 0.4 mm 5 m/S 740 mmHg 93%
    07:00 -5°C° 0.4 mm 5 m/S 739 mmHg 92%
    08:00 -5°C° 0.4 mm 6 m/S 739 mmHg 92%
    09:00 -5°C° 0.4 mm 6 m/S 738 mmHg 92%
    10:00 -4°C° 0.3 mm 5 m/S 737 mmHg 93%
    11:00 -4°C° 0.3 mm 5 m/S 736 mmHg 93%
    12:00 -2°C° 0.3 mm 4 m/S 735 mmHg 94%
    13:00 -1°C° 0.2 mm 3 m/S 734 mmHg 95%
    14:00 -1°C° 0.2 mm 3 m/S 733 mmHg 96%
    15:00 -1°C° 0.2 mm 2 m/S 732 mmHg 98%
    16:00 0°C° 0.1 mm 3 m/S 732 mmHg 98%
    17:00 0°C° 0.1 mm 3 m/S 731 mmHg 98%
    18:00 0°C° 0.1 mm 3 m/S 731 mmHg 98%
    19:00 -1°C° 0 mm 4 m/S 731 mmHg 97%
    20:00 -1°C° 0 mm 5 m/S 732 mmHg 96%
    21:00 -1°C° 0 mm 5 m/S 732 mmHg 95%
    22:00 -2°C° 0.1 mm 6 m/S 733 mmHg 93%
    23:00 -2°C° 0.1 mm 6 m/S 733 mmHg 91%

    übermorgen, 21 Februar, Donnerstag

    Zeit Temperatur Niederschläge Wind Luftdruck Luftfeuchtigkeit
    00:00 -2°C° 0.1 mm 6 m/S 734 mmHg 89%
    01:00 -3°C° 0 mm 6 m/S 735 mmHg 88%
    02:00 -3°C° 0 mm 6 m/S 736 mmHg 88%
    03:00 -4°C° 0 mm 6 m/S 737 mmHg 87%
    04:00 -5°C° 0 mm 5 m/S 737 mmHg 89%
    05:00 -6°C° 0 mm 5 m/S 738 mmHg 90%
    06:00 -8°C° 0 mm 4 m/S 739 mmHg 92%
    07:00 -8°C° 0 mm 4 m/S 740 mmHg 92%
    08:00 -8°C° 0 mm 4 m/S 741 mmHg 93%
    09:00 -8°C° 0 mm 4 m/S 742 mmHg 93%
    10:00 -7°C° 0 mm 4 m/S 742 mmHg 92%
    11:00 -5°C° 0 mm 4 m/S 743 mmHg 91%
    12:00 -4°C° 0 mm 4 m/S 743 mmHg 90%
    13:00 -4°C° 0 mm 3 m/S 743 mmHg 88%
    14:00 -4°C° 0 mm 3 m/S 743 mmHg 87%
    15:00 -2°C° 0 mm 3 m/S 743 mmHg 85%
    16:00 -4°C° 0 mm 3 m/S 744 mmHg 87%
    17:00 -4°C° 0 mm 2 m/S 744 mmHg 89%
    18:00 -5°C° 0 mm 2 m/S 744 mmHg 91%
    19:00 -5°C° 0 mm 2 m/S 745 mmHg 92%
    20:00 -4°C° 0 mm 1 m/S 745 mmHg 92%
    21:00 -4°C° 0 mm 1 m/S 746 mmHg 92%
    22:00 -6°C° 0 mm 1 m/S 746 mmHg 92%
    23:00 -6°C° 0 mm 1 m/S 747 mmHg 92%

    22 Februar, Freitag

    Zeit Temperatur Niederschläge Wind Luftdruck Luftfeuchtigkeit
    00:00 -6°C° 0 mm 1 m/S 747 mmHg 92%
    01:00 -6°C° 0 mm 1 m/S 747 mmHg 91%
    02:00 -6°C° 0 mm 1 m/S 747 mmHg 91%
    03:00 -7°C° 0 mm 1 m/S 748 mmHg 91%
    04:00 -7°C° 0 mm 1 m/S 748 mmHg 91%
    05:00 -7°C° 0 mm 1 m/S 748 mmHg 90%
    06:00 -7°C° 0 mm 1 m/S 748 mmHg 90%
    07:00 -6°C° 0 mm 1 m/S 748 mmHg 88%
    08:00 -4°C° 0 mm 1 m/S 749 mmHg 86%
    09:00 -2°C° 0 mm 1 m/S 749 mmHg 84%
    10:00 -1°C° 0 mm 1 m/S 749 mmHg 83%
    11:00 -2°C° 0 mm 2 m/S 749 mmHg 82%
    12:00 -1°C° 0 mm 2 m/S 749 mmHg 82%
    13:00 +1°C° 0 mm 2 m/S 748 mmHg 80%
    14:00 +1°C° 0 mm 2 m/S 747 mmHg 78%
    15:00 +1°C° 0 mm 3 m/S 747 mmHg 76%
    16:00 0°C° 0 mm 3 m/S 746 mmHg 77%
    17:00 -1°C° 0 mm 3 m/S 746 mmHg 78%
    18:00 -2°C° 0 mm 3 m/S 745 mmHg 80%
    19:00 -2°C° 0 mm 3 m/S 745 mmHg 80%
    20:00 -2°C° 0 mm 3 m/S 745 mmHg 80%
    21:00 -2°C° 0 mm 3 m/S 744 mmHg 80%
    22:00 -2°C° 0 mm 3 m/S 744 mmHg 82%
    23:00 -2°C° 0 mm 2 m/S 743 mmHg 84%

    23 Februar, Samstag

    Zeit Temperatur Niederschläge Wind Luftdruck Luftfeuchtigkeit
    00:00 -2°C° 0 mm 2 m/S 743 mmHg 86%
    01:00 -1°C° 0 mm 2 m/S 742 mmHg 86%
    02:00 -1°C° 0 mm 3 m/S 741 mmHg 87%
    03:00 0°C° 0 mm 3 m/S 741 mmHg 88%
    04:00 +1°C° 0.6 mm 2 m/S 740 mmHg 90%
    05:00 +1°C° 0.6 mm 2 m/S 740 mmHg 93%
    06:00 +1°C° 0.6 mm 2 m/S 740 mmHg 96%
    07:00 +1°C° 0.7 mm 2 m/S 740 mmHg 97%
    08:00 +2°C° 0.7 mm 1 m/S 740 mmHg 98%
    09:00 +2°C° 0.7 mm 1 m/S 740 mmHg 99%
    10:00 +2°C° 0.2 mm 1 m/S 739 mmHg 99%
    11:00 +3°C° 0.2 mm 1 m/S 739 mmHg 99%
    12:00 +3°C° 0.2 mm 1 m/S 739 mmHg 99%
    13:00 +3°C° 0.2 mm 1 m/S 738 mmHg 99%
    14:00 +2°C° 0.2 mm 2 m/S 737 mmHg 99%
    15:00 +2°C° 0.2 mm 2 m/S 736 mmHg 99%
    16:00 +1°C° 0.7 mm 3 m/S 736 mmHg 98%
    17:00 0°C° 0.7 mm 3 m/S 736 mmHg 98%
    18:00 -1°C° 0.7 mm 4 m/S 735 mmHg 97%
    19:00 -1°C° 0.1 mm 4 m/S 734 mmHg 97%
    20:00 0°C° 0.1 mm 5 m/S 733 mmHg 97%
    21:00 -1°C° 0.1 mm 6 m/S 732 mmHg 97%
    22:00 0°C° 0.2 mm 5 m/S 731 mmHg 97%
    23:00 0°C° 0.2 mm 5 m/S 729 mmHg 97%

    24 Februar, Sonntag

    Zeit Temperatur Niederschläge Wind Luftdruck Luftfeuchtigkeit
    00:00 0°C° 0.2 mm 5 m/S 728 mmHg 98%
    01:00 +1°C° 0.9 mm 5 m/S 727 mmHg 98%
    02:00 +1°C° 0.9 mm 5 m/S 725 mmHg 98%
    03:00 +3°C° 0.9 mm 4 m/S 724 mmHg 98%
    04:00 +3°C° 0.3 mm 5 m/S 723 mmHg 97%
    05:00 +5°C° 0.3 mm 5 m/S 722 mmHg 96%
    06:00 +5°C° 0.3 mm 5 m/S 722 mmHg 95%
    07:00 +3°C° 0.1 mm 5 m/S 721 mmHg 93%
    08:00 +2°C° 0.1 mm 5 m/S 721 mmHg 92%
    09:00 +1°C° 0.1 mm 5 m/S 721 mmHg 91%
    10:00 +2°C° 0.2 mm 7 m/S 721 mmHg 89%
    11:00 +1°C° 0.2 mm 8 m/S 722 mmHg 88%
    12:00 +1°C° 0.2 mm 9 m/S 723 mmHg 87%
    13:00 0°C° 0.1 mm 9 m/S 725 mmHg 84%
    14:00 0°C° 0.1 mm 9 m/S 726 mmHg 80%
    15:00 -2°C° 0.1 mm 10 m/S 728 mmHg 77%
    16:00 -1°C° 0.1 mm 9 m/S 730 mmHg 77%
    17:00 -3°C° 0.1 mm 9 m/S 732 mmHg 77%
    18:00 -4°C° 0.1 mm 8 m/S 734 mmHg 77%
    19:00 -4°C° 0.1 mm 8 m/S 735 mmHg 77%
    20:00 -4°C° 0.1 mm 7 m/S 736 mmHg 76%
    21:00 -4°C° 0.1 mm 7 m/S 737 mmHg 76%
    22:00 -5°C° 0 mm 6 m/S 738 mmHg 76%
    23:00 -6°C° 0 mm 6 m/S 739 mmHg 75%
    Mehr zeigen